Volver al catálogo

GLOBALSTAR M051

ActivoComunicacionesLEO
NORAD 25853·PAYLOAD·🇺🇸 United States

Lanzado Jul 10, 1999 desde Cape Canaveral Space Force Station

Loading…

Próximos Pases (próximas 24 horas)

TLE

ActualizadoSource: Space-Track

Época: Sep 14, 2026, 18:29 UTC

1 25853U 99037C   26257.77071318 -.00000094  00000-0 -53438-3 0  9998
2 25853  51.9824  24.2620 0001143  92.8165 267.2777 11.42205343184332

Sigue GLOBALSTAR M051 en tiempo real con AllMySat

Download on the App Store